Weather History for Rabat-Sale, Morocco

Change the Weather History Date:

Sunday, February 24, 2013

  Actual Average Record
Temperature  
Mean Temperature 50 °F -  
Max Temperature 58 °F 65 °F 71 °F (1998)
Min Temperature 42 °F 47 °F 39 °F (1998)
Degree Days  
Heating Degree Days 15    
Moisture  
Dew Point 42 °F    
Average Humidity 64    
Maximum Humidity 93    
Minimum Humidity 43    
Precipitation  
Precipitation 0.00 in 0.08 in - ()
Sea Level Pressure  
Sea Level Pressure 30.19 in    
Wind  
Wind Speed 7 mph ()    
Max Wind Speed 12 mph    
Max Gust Speed -    
Visibility 4.6 miles    
Events      
Averages and records for this station are not official NWS values.
T = Trace of Precipitation, MM = Missing Value Source: Averaged Metar Reports

Daily Weather History Graph

Daily Weather History Graph

Search for Another Location

Airport:

Trip Planner

Search our weather history database for the weather conditions in past years. The results will help you decide how hot, cold, wet, or windy it might be!

Date:

Astronomy

Feb. 24, 2013 Rise Set
Actual Time 7:01 AM WET 6:19 PM WET
Civil Twilight 6:36 AM WET 6:44 PM WET
Nautical Twilight 6:07 AM WET 7:13 PM WET
Astronomical Twilight 5:38 AM WET 7:42 PM WET
Moon 5:16 PM WET (2/24) 5:49 AM WET (2/24)
Length of Visible Light 12h 07m
Length of Day
11h 17m
Waxing Gibbous, 98% of the Moon is Illuminated
Feb 24
Waxing Gibbous
Feb 25
Full
Mar 4
Last Quarter
Mar 11
New
Mar 19
First Quarter

Hourly Weather History & Observations

Time (WET) Temp. Dew Point Humidity Pressure Visibility Wind Dir Wind Speed Gust Speed Precip Events Conditions
12:00 AM 56 °F 45 °F 56% 30.19 in 4 mi NW 10.4 mph - -   Mostly Cloudy
12:00 AM 55.4 °F 44.6 °F 67% 30.18 in 3.7 mi NW 10.4 mph - N/A   Mostly Cloudy
12:30 AM 55.4 °F 44.6 °F 67% 30.18 in 3.7 mi NW 11.5 mph - N/A   Mostly Cloudy
1:00 AM 55.4 °F 42.8 °F 63% 30.18 in 3.7 mi NW 10.4 mph - N/A   Mostly Cloudy
1:30 AM 55.4 °F 42.8 °F 63% 30.18 in 3.7 mi NW 8.1 mph - N/A   Mostly Cloudy
2:00 AM 55.4 °F 42.8 °F 63% 30.18 in 3.7 mi NW 9.2 mph - N/A   Mostly Cloudy
2:30 AM 55.4 °F 41.0 °F 58% 30.18 in 3.7 mi WNW 9.2 mph - N/A   Mostly Cloudy
3:00 AM 55 °F 40 °F 46% 30.18 in 4 mi WNW 9.2 mph - -   Mostly Cloudy
3:00 AM 55.4 °F 39.2 °F 54% 30.15 in 3.7 mi WNW 9.2 mph - N/A   Mostly Cloudy
3:30 AM 55.4 °F 41.0 °F 58% 30.15 in - NW 8.1 mph - N/A   Unknown
4:00 AM 53.6 °F 41.0 °F 62% 30.15 in - NW 5.8 mph - N/A   Unknown
4:30 AM 55.4 °F 42.8 °F 63% 30.15 in 3.7 mi WNW 6.9 mph - N/A   Mostly Cloudy
5:00 AM 55.4 °F 41.0 °F 58% 30.15 in 3.7 mi NNW 9.2 mph - N/A   Mostly Cloudy
5:30 AM 53.6 °F 41.0 °F 62% 30.15 in 3.7 mi NW 4.6 mph - N/A   Mostly Cloudy
6:00 AM 54 °F 42 °F 53% 30.18 in 4 mi WNW 3.5 mph - -   Mostly Cloudy
6:00 AM 53.6 °F 42.8 °F 67% 30.15 in 3.7 mi WNW 3.5 mph - N/A   Mostly Cloudy
6:30 AM 53.6 °F 42.8 °F 67% 30.18 in 3.7 mi WNW 4.6 mph - N/A   Mostly Cloudy
7:00 AM 53.6 °F 42.8 °F 67% 30.18 in 3.7 mi NNW 3.5 mph - N/A   Mostly Cloudy
7:30 AM 53.6 °F 42.8 °F 67% 30.18 in 3.7 mi NW 4.6 mph - N/A   Mostly Cloudy
8:00 AM 53.6 °F 42.8 °F 67% 30.21 in 3.7 mi NNW 3.5 mph - N/A   Mostly Cloudy
8:30 AM 55.4 °F 42.8 °F 63% 30.21 in 3.7 mi Variable 2.3 mph - N/A   Mostly Cloudy
9:00 AM 56 °F 42 °F 48% 30.23 in 5 mi NW 6.9 mph - -   Mostly Cloudy
9:00 AM 57.2 °F 41.0 °F 55% 30.21 in 5.0 mi NW 6.9 mph - N/A   Scattered Clouds
9:30 AM 55.4 °F 42.8 °F 63% 30.21 in 5.0 mi WNW 6.9 mph - N/A   Scattered Clouds
10:00 AM 57.2 °F 41.0 °F 55% 30.24 in 5.0 mi NW 6.9 mph - N/A   Scattered Clouds
10:30 AM 57.2 °F 42.8 °F 59% 30.24 in 5.0 mi NW 5.8 mph - N/A   Scattered Clouds
11:00 AM 57.2 °F 41.0 °F 55% 30.24 in 5.0 mi NW 5.8 mph - N/A   Scattered Clouds
11:30 AM 57.2 °F 44.6 °F 63% 30.24 in 5.0 mi NW 5.8 mph - N/A   Scattered Clouds
12:00 PM 57 °F 44 °F 51% 30.24 in 5 mi NW 6.9 mph - -   Mostly Cloudy
12:00 PM 57.2 °F 44.6 °F 63% 30.21 in 5.0 mi NW 6.9 mph - N/A   Mostly Cloudy
12:30 PM 57.2 °F 42.8 °F 59% 30.21 in 5.0 mi NW 8.1 mph - N/A   Mostly Cloudy
1:00 PM 57.2 °F 42.8 °F 59% 30.21 in 5.0 mi NW 9.2 mph - N/A   Mostly Cloudy
1:30 PM 57.2 °F 42.8 °F 59% 30.21 in 5.0 mi NW 10.4 mph - N/A   Mostly Cloudy
2:00 PM 57.2 °F 42.8 °F 59% 30.21 in 5.0 mi NW 10.4 mph - N/A   Scattered Clouds
2:30 PM 57.2 °F 42.8 °F 59% 30.18 in 5.0 mi NNW 10.4 mph - N/A   Scattered Clouds
3:00 PM 57 °F 41 °F 43% 30.21 in 5 mi NNW 10.4 mph - -   Partly Cloudy
3:00 PM 57.2 °F 41.0 °F 55% 30.18 in 5.0 mi NNW 10.4 mph - N/A   Scattered Clouds
3:30 PM 55.4 °F 42.8 °F 63% 30.18 in 5.0 mi NNW 9.2 mph - N/A   Scattered Clouds
4:00 PM 57.2 °F 41.0 °F 55% 30.18 in 5.0 mi NW 9.2 mph - N/A   Scattered Clouds
4:30 PM 55.4 °F 41.0 °F 58% 30.18 in 5.0 mi NW 9.2 mph - N/A   Scattered Clouds
5:00 PM 55.4 °F 41.0 °F 58% 30.18 in 5.0 mi NNW 9.2 mph - N/A   Scattered Clouds
5:30 PM 53.6 °F 41.0 °F 62% 30.18 in 5.0 mi NNW 6.9 mph - N/A   Scattered Clouds
6:00 PM 52 °F 40 °F 53% 30.20 in 5 mi NNW 6.9 mph - -   Partly Cloudy
6:00 PM 51.8 °F 39.2 °F 62% 30.18 in 5.0 mi NNW 6.9 mph - N/A   Scattered Clouds
6:30 PM 50.0 °F 41.0 °F 71% 30.18 in 5.0 mi North 5.8 mph - N/A   Scattered Clouds
7:00 PM 50.0 °F 41.0 °F 71% 30.18 in 5.0 mi NNW 3.5 mph - N/A   Scattered Clouds
7:30 PM 48.2 °F 39.2 °F 71% 30.21 in 5.0 mi Calm Calm - N/A   Scattered Clouds
8:00 PM 48.2 °F 41.0 °F 76% 30.21 in 5.0 mi Calm Calm - N/A   Scattered Clouds
8:30 PM 46.4 °F 41.0 °F 81% 30.21 in 5.0 mi Calm Calm - N/A   Scattered Clouds
9:00 PM 45 °F 41 °F 81% 30.24 in 5 mi Calm Calm - -   Partly Cloudy
9:00 PM 44.6 °F 41.0 °F 87% 30.21 in 5.0 mi Calm Calm - N/A   Scattered Clouds
9:30 PM 44.6 °F 41.0 °F 87% 30.21 in - Calm Calm - N/A   Unknown
10:00 PM 44.6 °F 41.0 °F 87% 30.21 in 5.0 mi Calm Calm - N/A   Scattered Clouds
10:30 PM 42.8 °F 41.0 °F 93% 30.21 in 5.0 mi Calm Calm - N/A   Scattered Clouds
11:00 PM 46.4 °F 42.8 °F 87% 30.21 in 5.0 mi Calm Calm - N/A   Scattered Clouds
11:30 PM 48.2 °F 42.8 °F 82% 30.21 in 5.0 mi Calm Calm - N/A   Scattered Clouds